Time,TemperatureF,DewpointF,PressureIn,WindDirection,WindDirectionDegrees,WindSpeedMPH,WindSpeedGustMPH,Humidity,HourlyPrecipIn,Conditions,Clouds,dailyrainin,SoftwareType,DateUTC
2017-03-23 00:02:00,45.1,12.2,30.43,NNW,337,0.0,-999.0,26,-99.99,,,0.00,,2017-03-23 04:02:00,
2017-03-23 00:07:00,45.0,11.2,30.43,West,270,3.2,-999.0,25,-99.99,,,0.00,,2017-03-23 04:07:00,
2017-03-23 00:13:00,44.8,12.0,30.43,WSW,247,1.1,-999.0,26,-99.99,,,0.00,,2017-03-23 04:13:00,
2017-03-23 00:18:00,44.8,12.0,30.43,WSW,247,2.2,-999.0,26,-99.99,,,0.00,,2017-03-23 04:18:00,
2017-03-23 00:24:00,44.4,12.5,30.43,WSW,247,2.2,-999.0,27,-99.99,,,0.00,,2017-03-23 04:24:00,
2017-03-23 00:29:00,44.4,14.1,30.44,NNW,337,0.0,-999.0,29,-99.99,,,0.00,,2017-03-23 04:29:00,
2017-03-23 00:35:00,44.1,13.0,30.44,SW,225,1.7,-999.0,28,-99.99,,,0.00,,2017-03-23 04:35:00,
2017-03-23 00:40:00,44.1,12.2,30.44,SW,225,2.2,-999.0,27,-99.99,,,0.00,,2017-03-23 04:40:00,
2017-03-23 00:45:00,43.9,12.0,30.44,WSW,247,2.7,-999.0,27,-99.99,,,0.00,,2017-03-23 04:45:00,
2017-03-23 00:51:00,43.9,12.9,30.45,WSW,247,1.1,-999.0,28,-99.99,,,0.00,,2017-03-23 04:51:00,
2017-03-23 00:56:00,43.9,12.9,30.45,West,270,0.0,-999.0,28,-99.99,,,0.00,,2017-03-23 04:56:00,
2017-03-23 01:02:00,43.9,12.0,30.44,West,270,3.2,-999.0,27,-99.99,,,0.00,,2017-03-23 05:02:00,
2017-03-23 01:07:00,43.9,12.0,30.44,WSW,247,1.1,-999.0,27,-99.99,,,0.00,,2017-03-23 05:07:00,
2017-03-23 01:13:00,43.9,12.0,30.45,SW,225,1.1,-999.0,27,-99.99,,,0.00,,2017-03-23 05:13:00,
2017-03-23 01:18:00,43.7,12.7,30.45,West,270,0.0,-999.0,28,-99.99,,,0.00,,2017-03-23 05:18:00,
2017-03-23 01:24:00,43.5,11.7,30.45,SW,225,3.7,-999.0,27,-99.99,,,0.00,,2017-03-23 05:24:00,
2017-03-23 01:29:00,43.5,10.8,30.45,West,270,3.2,-999.0,26,-99.99,,,0.00,,2017-03-23 05:29:00,
2017-03-23 01:35:00,43.5,10.0,30.45,WSW,247,2.7,-999.0,25,-99.99,,,0.00,,2017-03-23 05:35:00,
2017-03-23 01:40:00,43.3,10.7,30.45,South,180,3.2,-999.0,26,-99.99,,,0.00,,2017-03-23 05:40:00,
2017-03-23 01:46:00,43.3,9.8,30.45,WSW,247,2.7,-999.0,25,-99.99,,,0.00,,2017-03-23 05:46:00,
2017-03-23 01:51:00,43.2,11.4,30.45,SW,225,3.2,-999.0,27,-99.99,,,0.00,,2017-03-23 05:51:00,
2017-03-23 02:02:00,42.8,10.2,30.45,SSW,202,1.7,-999.0,26,-99.99,,,0.00,,2017-03-23 06:02:00,
2017-03-23 02:07:00,42.6,9.2,30.45,WSW,247,1.7,-999.0,25,-99.99,,,0.00,,2017-03-23 06:07:00,
2017-03-23 02:13:00,42.6,10.1,30.46,WSW,247,1.7,-999.0,26,-99.99,,,0.00,,2017-03-23 06:13:00,
2017-03-23 02:18:00,42.3,10.7,30.46,North,360,1.1,-999.0,27,-99.99,,,0.00,,2017-03-23 06:18:00,
2017-03-23 02:23:00,42.3,10.7,30.46,WSW,247,2.7,-999.0,27,-99.99,,,0.00,,2017-03-23 06:23:00,
2017-03-23 02:29:00,42.1,12.1,30.46,South,180,1.7,-999.0,29,-99.99,,,0.00,,2017-03-23 06:29:00,
2017-03-23 02:34:00,41.9,10.3,30.46,SW,225,0.0,-999.0,27,-99.99,,,0.00,,2017-03-23 06:34:00,
2017-03-23 02:40:00,41.7,12.5,30.46,South,180,0.0,-999.0,30,-99.99,,,0.00,,2017-03-23 06:40:00,
2017-03-23 02:45:00,41.7,11.0,30.46,SSW,202,2.2,-999.0,28,-99.99,,,0.00,,2017-03-23 06:45:00,
2017-03-23 02:51:00,41.5,11.6,30.46,West,270,1.7,-999.0,29,-99.99,,,0.00,,2017-03-23 06:51:00,
2017-03-23 02:56:00,41.4,11.5,30.46,WSW,247,2.2,-999.0,29,-99.99,,,0.00,,2017-03-23 06:56:00,
2017-03-23 03:05:00,41.2,11.3,30.47,WSW,247,2.2,-999.0,29,-99.99,,,0.00,,2017-03-23 07:05:00,
2017-03-23 03:10:00,41.2,10.5,30.47,SW,225,3.2,-999.0,28,-99.99,,,0.00,,2017-03-23 07:10:00,
2017-03-23 03:16:00,41.0,11.1,30.47,West,270,3.2,-999.0,29,-99.99,,,0.00,,2017-03-23 07:16:00,
2017-03-23 03:21:00,40.8,11.0,30.47,SSW,202,2.7,-999.0,29,-99.99,,,0.00,,2017-03-23 07:21:00,
2017-03-23 03:27:00,40.6,10.8,30.47,WSW,247,2.2,-999.0,29,-99.99,,,0.00,,2017-03-23 07:27:00,
2017-03-23 03:32:00,40.6,10.0,30.47,West,270,2.7,-999.0,28,-99.99,,,0.00,,2017-03-23 07:32:00,
2017-03-23 03:38:00,40.5,10.7,30.47,WSW,247,0.0,-999.0,29,-99.99,,,0.00,,2017-03-23 07:38:00,
2017-03-23 03:43:00,40.5,9.9,30.47,SW,225,2.2,-999.0,28,-99.99,,,0.00,,2017-03-23 07:43:00,
2017-03-23 03:49:00,40.3,9.7,30.47,West,270,1.7,-999.0,28,-99.99,,,0.00,,2017-03-23 07:49:00,
2017-03-23 03:54:00,39.9,10.2,30.47,SW,225,1.1,-999.0,29,-99.99,,,0.00,,2017-03-23 07:54:00,
2017-03-23 04:00:00,39.9,10.2,30.47,SW,225,2.2,-999.0,29,-99.99,,,0.00,,2017-03-23 08:00:00,
2017-03-23 04:05:00,39.7,11.5,30.47,SW,225,0.0,-999.0,31,-99.99,,,0.00,,2017-03-23 08:05:00,
2017-03-23 04:11:00,39.6,10.7,30.47,SSW,202,2.7,-999.0,30,-99.99,,,0.00,,2017-03-23 08:11:00,
2017-03-23 04:16:00,39.4,10.5,30.47,SW,225,0.0,-999.0,30,-99.99,,,0.00,,2017-03-23 08:16:00,
2017-03-23 04:22:00,39.2,10.3,30.47,SSW,202,0.0,-999.0,30,-99.99,,,0.00,,2017-03-23 08:22:00,
2017-03-23 04:33:00,38.8,10.7,30.47,WNW,292,0.0,-999.0,31,-99.99,,,0.00,,2017-03-23 08:33:00,
2017-03-23 04:38:00,38.5,11.2,30.48,SW,225,0.0,-999.0,32,-99.99,,,0.00,,2017-03-23 08:38:00,
2017-03-23 04:44:00,38.3,12.4,30.48,WSW,247,0.0,-999.0,34,-99.99,,,0.00,,2017-03-23 08:44:00,
2017-03-23 04:49:00,37.9,11.3,30.48,NW,315,1.1,-999.0,33,-99.99,,,0.00,,2017-03-23 08:49:00,
2017-03-23 04:55:00,37.9,11.3,30.48,West,270,0.0,-999.0,33,-99.99,,,0.00,,2017-03-23 08:55:00,
2017-03-23 05:00:00,37.8,11.9,30.48,West,270,0.0,-999.0,34,-99.99,,,0.00,,2017-03-23 09:00:00,
2017-03-23 05:06:00,37.6,13.0,30.49,WSW,247,0.0,-999.0,36,-99.99,,,0.00,,2017-03-23 09:06:00,
2017-03-23 05:11:00,37.2,13.3,30.49,West,270,0.0,-999.0,37,-99.99,,,0.00,,2017-03-23 09:11:00,
2017-03-23 05:17:00,37.0,12.5,30.49,West,270,0.0,-999.0,36,-99.99,,,0.00,,2017-03-23 09:17:00,
2017-03-23 05:22:00,36.9,13.6,30.49,WNW,292,0.0,-999.0,38,-99.99,,,0.00,,2017-03-23 09:22:00,
2017-03-23 05:27:00,36.7,11.6,30.49,West,270,0.0,-999.0,35,-99.99,,,0.00,,2017-03-23 09:27:00,